Regional Weather Roundup
Issued by NWS

Home | Current Version | Previous Version | Text Only | Print | Product List | Glossary Off
Versions: 1 2 3 4 5 6 7 8 9 10 11 12 13 14 15 16 17 18 19 20 21 22 23 24 25 26 27 28 29 30 31 32 33 34 35 36 37 38 39 40 41 42 43 44 45 46 47 48 49 50

000
ASUS45 KSLC 310210
RWRUT

UTAH REGIONAL WEATHER ROUNDUP
NATIONAL WEATHER SERVICE SALT LAKE CITY UT
800 PM MDT MON MAY 30 2016

UTZ001>011-023>025-310300-

NORTHERN UTAH

CITY           SKY/WX    TMP DP  RH WIND       PRES   REMARKS
BRIGHAM CITY     N/A     72  34  24 N17       30.05R
HILL AFB       PTCLDY    70  38  31 NW6       30.05F
LOGAN          PTCLDY    65  41  41 N10       30.06S
OGDEN          PTCLDY    71  42  35 N8        30.03S
PROVO AIRPORT  PTCLDY    72  34  25 NW13      30.04R
SALT LAKE CITY MOCLDY    75  34  22 N10       30.02F
VERNAL         CLEAR     69  35  28 E9        30.00S
WENDOVER       PTCLDY    77  28  16 N12       30.03S
HEBER CITY     PTCLDY    64  32  29 N8        30.08S
WEST JORDAN    CLEAR     72  36  26 NW8       30.05F

$$

UTZ012>022-026-027-310300-

SOUTHERN/CENTRAL UTAH

CITY           SKY/WX    TMP DP  RH WIND       PRES   REMARKS
BLANDING       PTCLDY    71  23  16 NW8       30.08S
BRYCE CANYON   PTCLDY    63  32  31 NW5       30.18S
CEDAR CITY     CLEAR     73  28  18 N8        30.03S
DELTA          CLEAR     73  19  13 N9        30.02S
HANKSVILLE     MOCLDY    77  28  16 S7        29.95F
MILFORD        CLEAR     77  29  17 N13G23    30.00S
MOAB/CYNLANDS  MOCLDY    83  23  11 NW8       29.90S
PRICE          CLEAR     71  25  17 NW16G23   30.04R
ST GEORGE      PTCLDY    86  32  14 N8        29.89S
KANAB          PTCLDY    75  34  22 CALM      30.04

$$

REGIONAL REPORTS     COLORADO/ARIZONA

CITY           SKY/WX    TMP DP  RH WIND       PRES   REMARKS
CRAIG, CO      CLOUDY    62  38  40 SW8       30.07R
GRAND JUNCTION CLOUDY    74  30  19 SE5       29.97S
RIFLE          CLOUDY    64  38  38 SE5       30.04R
MONTROSE       CLOUDY    65  35  33 S14       30.08R
CORTEZ         PTCLDY    72  28  19 N13G23    30.01R
PAGE, AZ       CLOUDY    81  27  14 E6        29.93S
GRAND CANYON   MOCLDY    64  30  27 CALM      30.11R
KINGMAN        MOCLDY    82  25  12 E10       29.91F
FLAGSTAFF      PTCLDY    62  26  25 NW6       30.11F

$$

REGIONAL REPORTS    NEVADA/IDAHO/WYOMING

CITY           SKY/WX    TMP DP  RH WIND       PRES   REMARKS
LAS VEGAS, NV  MOCLDY    93  28  10 E7        29.76F
ELY            CLEAR     71  31  22 N12       30.12R
ELKO           SUNNY     74  33  22 N13       30.10S
POCATELLO, ID  PTCLDY    67  29  24 SW16      30.08
BURLEY         CLEAR     67  28  23 W13G21    30.06S
EVANSTON, WY   CLOUDY    58  38  47 NW10      30.17S
ROCK SPRINGS   CLEAR     61  32  33 W20G29    30.11R
KEMMERER         N/A     55  28  35 NW15G21   30.18R

$$



USA.gov is the U.S. government's official web portal to all federal, state and local government web resources and services.